星链-32633 (STARLINK-32633)

导读 | 豆包AI

STARLINK-32633是美国太空探索技术公司Starlink星座的成员,于2024年12月13日由美国发射升空,星链星座旨在为全球提供覆盖偏远地区的高速卫星互联网服务。该卫星加入星座后,进一步扩充了星链低轨卫星网络规模,提升星座整体通信覆盖能力与服务容量,助力全球卫星互联服务覆盖范围和稳定性升级。

基本信息
目录编号:
62306
目录名称:
STARLINK-32633
国际标识:
2024-239F
轨道中心:
EARTH
卫星名称:
星链-32633
卫星全名:
星链-32633 (STARLINK-32633)
卫星状态:
在轨 (已飞行457 天)
发射日期:
2024-12-13 UTC
国别 :
美国 (US)
星等 :
--
轨道信息
数据来源 国际轨道数据
星历时间: 2026-03-14T20:23:01+0800
17小时前
查看轨道信息
半长轴: 6853.25km
偏心率: 0.0000806
轨道倾角: 53.158°
近地点辐角 115.733°
升交点赤经 171.445°
平近点角 244.375°
近地点: 474.56km
远地点: 475.666km
周期: 94.103分钟
每日圈数: 15.302344
详细信息
固有亮度:
5
最大亮度:
2.5
卫星平台:
Starlink V1.0
覆盖范围:
全球
运营商:
太空探索技术公司
运营商所在国:
美国
制造商(研发单位):
太空探索技术公司
制造商所在国:
美国
使用方式:
暂无
卫星简介
Starlink 计划是 SpaceX 推出的全球卫星互联网项目,通过发射低轨道卫星,为全球尤其是偏远地区提供高速、低延迟的互联网服务。自 2019 年起,Starlink 已部署数千颗卫星,旨在缩小全球数字鸿沟,推动互联网普及。该项目还为军事、航空等行业提供通信支持,带来广泛经济效益。
2D轨道图
3D轨道图
轨道高度分析图
轨道倾角分析图
轨道综合分析图
查看轨道综合分析图